Location: Ammerl�gen
(47.2167°N, 9.6000°E)
Time: 17:04:15
(UTC+00:00)

NOAA 19 - Pass Details

Date: 03 December 2021
Orbit: 841 x 860 km, 99.2° (Epoch: 17 January)

Event Time Altitude Azimuth Distance (km) Brightness Sun altitude
Rises 18:45:23 0° 189° (S) 3,383 8.4 -31.8°
Reaches altitude 10° 18:47:56 10° 198° (SSW) 2,453 7.8 -32.3°
Maximum altitude 18:52:52 35° 263° (W) 1,340 6.6 -33.1°
Drops below altitude 10° 18:57:51 10° 329° (NNW) 2,476 8.0 -34.0°
Sets 19:00:27 0° 338° (NNW) 3,418 8.7 -34.4°
